Overview Statistics Trail Chart Weather Telemetry Raw packets
 

This is the latest recevied weather packets stored in our database for station/object MeshWX-2. If no packets are shown the sender has not sent any weather packets the latest 10 day(s).

<< 29 30 31 32 33 34 35 >>
Time Temp. Humidity Pressure Rain* Wind** Luminosity Snow
1787830208 32.22° C 47% 885.8 hPa - - - -
1787830164 32.22° C 47% 885.8 hPa - - - -
1787828220 29.44° C 47% 886 hPa - - - -
1787828184 29.44° C 47% 886 hPa - - - -
1787826240 28.33° C 46% 886 hPa - - - -
1787826209 28.33° C 46% 886 hPa - - - -
1787824261 26.11° C 46% 886 hPa - - - -
1787824223 26.11° C 46% 886 hPa - - - -
1787822279 21.67° C 50% 886.1 hPa - - - -
1787822242 21.67° C 50% 886.1 hPa - - - -
1787820299 21.11° C 50% 886 hPa - - - -
1787820262 21.11° C 50% 886 hPa - - - -
1787816327 21.11° C 51% 885.8 hPa - - - -
1787816291 21.11° C 51% 885.8 hPa - - - -
1787814346 20.56° C 52% 885.6 hPa - - - -
1787814310 20.56° C 52% 885.6 hPa - - - -
1787812871 21.11° C 50% 885.3 hPa - - - -
1787812366 21.11° C 50% 885.3 hPa - - - -
1787812330 21.11° C 50% 885.3 hPa - - - -
1787810385 20.56° C 51% 885.2 hPa - - - -
1787810349 20.56° C 51% 885.2 hPa - - - -
1787808405 19.44° C 51% 885.4 hPa - - - -
1787808369 19.44° C 51% 885.4 hPa - - - -
1787806424 18.33° C 50% 885.3 hPa - - - -
1787806389 18.33° C 50% 885.3 hPa - - - -

* Rain since midnight (hover to see other rain measurements)
** Current wind speed in m/s (hover to see current wind gust speed)